Time,TemperatureF,DewpointF,PressureIn,WindDirection,WindDirectionDegrees,WindSpeedMPH,WindSpeedGustMPH,Humidity,HourlyPrecipIn,Conditions,Clouds,dailyrainin,SoftwareType,DateUTC
2013-09-21 00:00:00,77.5,75.2,29.91,SSW,202,0.0,0.9,93,0.00,,,0.00,Graphweather,2013-09-21 04:00:00,
2013-09-21 00:01:00,77.5,75.2,29.91,SSW,202,0.0,0.9,93,0.00,,,0.00,Graphweather,2013-09-21 04:01:00,
2013-09-21 00:08:00,77.5,75.2,29.91,SSW,202,0.0,0.0,93,0.00,,,0.00,Graphweather,2013-09-21 04:08:00,
2013-09-21 00:16:00,77.5,75.2,29.88,SSW,202,0.0,1.1,94,0.00,,,0.00,Graphweather,2013-09-21 04:16:00,
2013-09-21 00:21:00,77.4,75.2,29.88,SSW,202,0.9,0.9,94,0.00,,,0.00,Graphweather,2013-09-21 04:21:00,
2013-09-21 00:26:00,77.4,75.2,29.88,SSW,202,0.9,1.3,94,0.00,,,0.00,Graphweather,2013-09-21 04:26:00,
2013-09-21 00:31:00,77.4,75.2,29.88,SSW,202,0.0,0.9,94,0.00,,,0.00,Graphweather,2013-09-21 04:31:00,
2013-09-21 00:38:00,77.4,75.2,29.88,SSW,202,0.9,1.3,94,0.00,,,0.00,Graphweather,2013-09-21 04:38:00,
2013-09-21 00:46:00,77.2,75.2,29.85,SSW,202,0.0,1.1,94,0.00,,,0.00,Graphweather,2013-09-21 04:46:00,
2013-09-21 00:51:00,77.2,75.2,29.85,SSW,202,0.9,1.1,94,0.00,,,0.00,Graphweather,2013-09-21 04:51:00,
2013-09-21 00:56:00,77.2,75.2,29.85,SSW,202,0.9,1.3,94,0.00,,,0.00,Graphweather,2013-09-21 04:56:00,
2013-09-21 01:01:00,77.2,75.2,29.88,SSW,202,1.1,1.1,94,0.00,,,0.00,Graphweather,2013-09-21 05:01:00,
2013-09-21 01:06:00,77.2,75.2,29.88,SSW,202,1.1,1.3,94,0.00,,,0.00,Graphweather,2013-09-21 05:06:00,
2013-09-21 01:11:00,77.2,75.2,29.88,SSW,202,0.0,1.1,94,0.00,,,0.00,Graphweather,2013-09-21 05:11:00,
2013-09-21 01:21:00,77.4,75.2,29.88,SSW,202,0.0,1.3,94,0.00,,,0.00,Graphweather,2013-09-21 05:21:00,
2013-09-21 01:26:00,77.4,75.2,29.88,SSW,202,0.0,0.0,94,0.00,,,0.00,Graphweather,2013-09-21 05:26:00,
2013-09-21 01:31:00,77.2,75.2,29.85,SSW,202,0.0,0.0,94,0.00,,,0.00,Graphweather,2013-09-21 05:31:00,
2013-09-21 01:36:00,77.2,75.2,29.85,South,180,0.0,0.9,94,0.00,,,0.00,Graphweather,2013-09-21 05:36:00,
2013-09-21 01:41:00,77.2,75.2,29.85,SSE,157,0.9,2.0,94,0.00,,,0.00,Graphweather,2013-09-21 05:41:00,
2013-09-21 01:46:00,77.5,75.2,29.83,SSW,202,1.1,1.6,94,0.00,,,0.00,Graphweather,2013-09-21 05:46:00,
2013-09-21 01:51:00,77.7,75.2,29.83,South,180,2.2,3.6,94,0.00,,,0.00,Graphweather,2013-09-21 05:51:00,
2013-09-21 02:01:00,77.9,77.0,29.80,WSW,247,1.1,3.1,94,0.00,,,0.00,Graphweather,2013-09-21 06:01:00,
2013-09-21 02:06:00,77.9,77.0,29.80,SSW,202,2.0,3.6,94,0.00,,,0.00,Graphweather,2013-09-21 06:06:00,
2013-09-21 02:11:00,78.1,77.0,29.80,SSW,202,2.2,3.6,94,0.00,,,0.00,Graphweather,2013-09-21 06:11:00,
2013-09-21 02:16:00,78.1,77.0,29.85,WSW,247,2.0,4.0,94,0.00,,,0.00,Graphweather,2013-09-21 06:16:00,
2013-09-21 02:21:00,78.1,77.0,29.85,South,180,0.9,2.9,94,0.00,,,0.00,Graphweather,2013-09-21 06:21:00,
2013-09-21 02:26:00,78.1,77.0,29.85,WSW,247,0.9,2.9,93,0.00,,,0.00,Graphweather,2013-09-21 06:26:00,
2013-09-21 02:31:00,78.3,77.0,29.83,SSW,202,1.6,3.8,93,0.00,,,0.00,Graphweather,2013-09-21 06:31:00,
2013-09-21 02:36:00,78.3,77.0,29.83,WSW,247,2.2,4.3,93,0.00,,,0.00,Graphweather,2013-09-21 06:36:00,
2013-09-21 02:46:00,78.3,77.0,29.83,South,180,0.9,3.4,93,0.00,,,0.00,Graphweather,2013-09-21 06:46:00,
2013-09-21 02:51:00,78.3,77.0,29.83,NNE,22,1.1,4.0,93,0.00,,,0.00,Graphweather,2013-09-21 06:51:00,
2013-09-21 02:56:00,78.3,77.0,29.83,SSW,202,2.0,3.8,93,0.00,,,0.00,Graphweather,2013-09-21 06:56:00,
2013-09-21 03:01:00,78.4,77.0,29.83,SSW,202,2.0,4.0,93,0.00,,,0.00,Graphweather,2013-09-21 07:01:00,
2013-09-21 03:06:00,78.4,77.0,29.83,ENE,67,0.9,3.8,93,0.00,,,0.00,Graphweather,2013-09-21 07:06:00,
2013-09-21 03:11:00,78.4,77.0,29.83,WNW,292,3.1,5.8,93,0.00,,,0.00,Graphweather,2013-09-21 07:11:00,
2013-09-21 03:16:00,78.4,77.0,29.83,East,90,1.1,3.6,93,0.00,,,0.00,Graphweather,2013-09-21 07:16:00,
2013-09-21 03:21:00,78.4,77.0,29.83,SSE,157,2.0,3.6,93,0.00,,,0.00,Graphweather,2013-09-21 07:21:00,
2013-09-21 03:26:00,78.4,77.0,29.83,ENE,67,1.1,3.6,93,0.00,,,0.00,Graphweather,2013-09-21 07:26:00,
2013-09-21 03:31:00,78.4,77.0,29.83,ENE,67,0.0,5.8,93,0.00,,,0.00,Graphweather,2013-09-21 07:31:00,
2013-09-21 03:36:00,78.4,77.0,29.83,ESE,112,1.6,3.8,93,0.00,,,0.00,Graphweather,2013-09-21 07:36:00,
2013-09-21 03:46:00,78.4,77.0,29.85,East,90,1.6,2.5,93,0.00,,,0.00,Graphweather,2013-09-21 07:46:00,
2013-09-21 03:51:00,78.4,77.0,29.85,SW,225,1.3,3.6,93,0.00,,,0.00,Graphweather,2013-09-21 07:51:00,
2013-09-21 03:56:00,78.3,77.0,29.85,South,180,1.6,3.1,93,0.00,,,0.00,Graphweather,2013-09-21 07:56:00,
2013-09-21 04:01:00,78.3,77.0,29.83,SSW,202,0.9,2.9,93,0.00,,,0.00,Graphweather,2013-09-21 08:01:00,
2013-09-21 04:06:00,78.3,77.0,29.83,SSE,157,1.3,2.7,93,0.00,,,0.00,Graphweather,2013-09-21 08:06:00,
2013-09-21 04:11:00,78.3,77.0,29.83,WNW,292,0.9,2.5,93,0.00,,,0.00,Graphweather,2013-09-21 08:11:00,
2013-09-21 04:16:00,78.3,77.0,29.80,SSE,157,1.1,2.9,93,0.00,,,0.00,Graphweather,2013-09-21 08:16:00,
2013-09-21 04:21:00,78.3,77.0,29.80,SSE,157,0.9,2.0,93,0.00,,,0.00,Graphweather,2013-09-21 08:21:00,
2013-09-21 04:26:00,78.1,77.0,29.80,SSE,157,1.1,2.5,93,0.00,,,0.00,Graphweather,2013-09-21 08:26:00,
2013-09-21 04:31:00,78.1,77.0,29.80,NNE,22,0.0,2.0,93,0.00,,,0.00,Graphweather,2013-09-21 08:31:00,
2013-09-21 04:36:00,78.1,77.0,29.80,NNW,337,0.0,2.2,93,0.00,,,0.00,Graphweather,2013-09-21 08:36:00,
2013-09-21 04:41:00,77.9,77.0,29.80,East,90,0.0,1.6,93,0.00,,,0.00,Graphweather,2013-09-21 08:41:00,
2013-09-21 04:51:00,77.9,77.0,29.83,WSW,247,0.0,2.7,93,0.00,,,0.00,Graphweather,2013-09-21 08:51:00,
2013-09-21 04:56:00,77.9,77.0,29.83,West,270,0.0,1.6,93,0.00,,,0.00,Graphweather,2013-09-21 08:56:00,
2013-09-21 05:01:00,78.1,77.0,29.83,East,90,0.0,2.2,93,0.00,,,0.00,Graphweather,2013-09-21 09:01:00,
2013-09-21 05:06:00,77.7,75.2,29.83,East,90,0.0,0.0,93,0.00,,,0.00,Graphweather,2013-09-21 09:06:00,
2013-09-21 05:11:00,77.5,75.2,29.83,East,90,0.0,1.1,93,0.00,,,0.00,Graphweather,2013-09-21 09:11:00,
2013-09-21 05:16:00,77.5,75.2,29.83,East,90,0.0,1.3,93,0.00,,,0.00,Graphweather,2013-09-21 09:16:00,
2013-09-21 05:21:00,77.4,75.2,29.83,East,90,0.0,1.1,93,0.00,,,0.00,Graphweather,2013-09-21 09:21:00,
2013-09-21 05:26:00,77.2,75.2,29.83,East,90,0.9,1.1,93,0.00,,,0.00,Graphweather,2013-09-21 09:26:00,
2013-09-21 05:31:00,77.4,75.2,29.83,East,90,1.3,2.2,93,0.00,,,0.00,Graphweather,2013-09-21 09:31:00,
2013-09-21 05:36:00,77.5,75.2,29.83,East,90,0.0,1.3,93,0.00,,,0.00,Graphweather,2013-09-21 09:36:00,
2013-09-21 05:41:00,77.7,75.2,29.83,SSE,157,0.0,1.6,93,0.00,,,0.00,Graphweather,2013-09-21 09:41:00,
2013-09-21 05:46:00,77.7,75.2,29.85,SE,135,0.0,1.3,93,0.00,,,0.00,Graphweather,2013-09-21 09:46:00,
2013-09-21 05:56:00,77.5,75.2,29.85,West,270,0.0,0.0,93,0.00,,,0.00,Graphweather,2013-09-21 09:56:00,
2013-09-21 06:06:00,77.5,75.2,29.85,WSW,247,0.0,0.0,93,0.00,,,0.00,Graphweather,2013-09-21 10:06:00,
2013-09-21 06:11:00,77.7,75.2,29.85,SSW,202,0.0,0.9,93,0.00,,,0.00,Graphweather,2013-09-21 10:11:00,
2013-09-21 06:44:00,78.3,77.0,29.85,ESE,112,0.0,0.0,93,0.00,,,0.00,Graphweather,2013-09-21 10:44:00,
2013-09-21 06:50:00,84.6,80.6,29.88,NNE,22,1.3,2.0,88,0.00,,,0.00,Graphweather,2013-09-21 10:50:00,
2013-09-21 06:55:00,86.0,82.4,29.88,NNE,22,0.0,2.0,88,0.00,,,0.00,Graphweather,2013-09-21 10:55:00,
2013-09-21 07:01:00,86.5,82.4,29.91,ENE,67,1.3,2.0,86,0.00,,,0.00,Graphweather,2013-09-21 11:01:00,
2013-09-21 07:06:00,87.6,82.4,29.91,SE,135,0.0,1.6,85,0.00,,,0.00,Graphweather,2013-09-21 11:06:00,
2013-09-21 07:11:00,88.2,82.4,29.91,SE,135,1.6,3.1,83,0.00,,,0.00,Graphweather,2013-09-21 11:11:00,
2013-09-21 07:16:00,88.9,82.4,29.88,SSE,157,0.9,1.3,81,0.00,,,0.00,Graphweather,2013-09-21 11:16:00,
2013-09-21 07:21:00,89.6,82.4,29.88,East,90,0.0,3.4,80,0.00,,,0.00,Graphweather,2013-09-21 11:21:00,
2013-09-21 07:26:00,90.0,82.4,29.88,SE,135,0.9,2.5,77,0.00,,,0.00,Graphweather,2013-09-21 11:26:00,
2013-09-21 07:31:00,90.7,82.4,29.88,ESE,112,1.3,2.0,75,0.00,,,0.00,Graphweather,2013-09-21 11:31:00,
2013-09-21 07:40:00,91.9,82.4,29.88,East,90,1.1,2.5,73,0.00,,,0.00,Graphweather,2013-09-21 11:40:00,
2013-09-21 07:46:00,92.5,82.4,29.88,ESE,112,0.9,2.5,72,0.00,,,0.00,Graphweather,2013-09-21 11:46:00,
2013-09-21 07:51:00,93.6,82.4,29.88,ESE,112,0.0,2.5,69,0.00,,,0.00,Graphweather,2013-09-21 11:51:00,
2013-09-21 07:56:00,94.3,82.4,29.88,East,90,1.1,2.5,68,0.00,,,0.00,Graphweather,2013-09-21 11:56:00,
2013-09-21 08:01:00,94.5,80.6,29.88,ESE,112,0.0,3.8,66,0.00,,,0.00,Graphweather,2013-09-21 12:01:00,
2013-09-21 08:06:00,95.0,80.6,29.88,East,90,2.0,2.9,64,0.00,,,0.00,Graphweather,2013-09-21 12:06:00,
2013-09-21 08:11:00,95.4,80.6,29.88,East,90,0.9,2.7,63,0.00,,,0.00,Graphweather,2013-09-21 12:11:00,
2013-09-21 08:16:00,95.5,80.6,29.91,ENE,67,1.3,3.1,61,0.00,,,0.00,Graphweather,2013-09-21 12:16:00,
2013-09-21 08:21:00,96.4,80.6,29.91,ESE,112,0.0,2.9,61,0.00,,,0.00,Graphweather,2013-09-21 12:21:00,
2013-09-21 08:31:00,96.8,80.6,29.91,East,90,1.1,2.9,59,0.00,,,0.00,Graphweather,2013-09-21 12:31:00,
2013-09-21 08:36:00,97.9,80.6,29.91,ESE,112,1.6,3.4,57,0.00,,,0.00,Graphweather,2013-09-21 12:36:00,
2013-09-21 08:41:00,98.6,80.6,29.91,ESE,112,2.5,3.4,57,0.00,,,0.00,Graphweather,2013-09-21 12:41:00,
2013-09-21 08:46:00,98.6,80.6,29.91,East,90,2.5,4.0,56,0.00,,,0.00,Graphweather,2013-09-21 12:46:00,
2013-09-21 08:51:00,100.6,80.6,29.91,East,90,0.9,2.0,54,0.00,,,0.00,Graphweather,2013-09-21 12:51:00,
2013-09-21 08:56:00,101.3,80.6,29.91,East,90,1.3,3.8,51,0.00,,,0.00,Graphweather,2013-09-21 12:56:00,
2013-09-21 09:01:00,101.5,80.6,29.91,East,90,1.1,4.3,51,0.00,,,0.00,Graphweather,2013-09-21 13:01:00,
2013-09-21 09:11:00,97.5,77.0,29.91,East,90,2.9,4.0,52,0.00,,,0.00,Graphweather,2013-09-21 13:11:00,
2013-09-21 09:16:00,95.0,77.0,29.91,SSE,157,3.1,6.3,54,0.00,,,0.00,Graphweather,2013-09-21 13:16:00,
2013-09-21 09:21:00,93.6,77.0,29.91,ESE,112,2.0,2.9,57,0.00,,,0.00,Graphweather,2013-09-21 13:21:00,
2013-09-21 09:26:00,93.4,77.0,29.91,ENE,67,0.9,3.4,60,0.00,,,0.00,Graphweather,2013-09-21 13:26:00,
2013-09-21 09:31:00,95.5,80.6,29.91,East,90,1.1,4.9,60,0.00,,,0.00,Graphweather,2013-09-21 13:31:00,
2013-09-21 09:36:00,98.6,80.6,29.91,NE,45,2.2,2.9,57,0.00,,,0.00,Graphweather,2013-09-21 13:36:00,
2013-09-21 09:42:00,100.4,80.6,29.91,East,90,1.6,4.3,55,0.00,,,0.00,Graphweather,2013-09-21 13:42:00,
2013-09-21 09:47:00,99.0,78.8,29.91,East,90,1.3,3.4,53,0.00,,,0.00,Graphweather,2013-09-21 13:47:00,
2013-09-21 09:56:00,98.8,78.8,29.91,NNE,22,2.0,4.0,54,0.00,,,0.00,Graphweather,2013-09-21 13:56:00,
2013-09-21 10:01:00,101.1,80.6,29.91,East,90,1.3,4.0,52,0.00,,,0.00,Graphweather,2013-09-21 14:01:00,
2013-09-21 10:06:00,100.8,78.8,29.91,NNE,22,2.7,6.3,50,0.00,,,0.00,Graphweather,2013-09-21 14:06:00,
2013-09-21 10:11:00,102.2,80.6,29.91,East,90,1.6,2.9,50,0.00,,,0.00,Graphweather,2013-09-21 14:11:00,
2013-09-21 10:17:00,103.3,80.6,29.91,East,90,1.1,2.5,49,0.00,,,0.00,Graphweather,2013-09-21 14:17:00,
2013-09-21 10:26:00,103.1,78.8,29.91,East,90,2.0,3.8,47,0.00,,,0.00,Graphweather,2013-09-21 14:26:00,
2013-09-21 10:35:00,102.9,78.8,29.91,SSW,202,2.0,3.6,47,0.00,,,0.00,Graphweather,2013-09-21 14:35:00,
2013-09-21 10:45:00,102.9,78.8,29.91,SSW,202,2.0,3.6,47,0.00,,,0.00,Graphweather,2013-09-21 14:45:00,
2013-09-21 10:51:00,101.7,78.8,29.91,East,90,2.2,3.4,48,0.00,,,0.00,Graphweather,2013-09-21 14:51:00,
2013-09-21 10:56:00,101.8,78.8,29.91,East,90,1.1,3.8,48,0.00,,,0.00,Graphweather,2013-09-21 14:56:00,
2013-09-21 11:01:00,102.2,78.8,29.91,ESE,112,2.2,2.9,47,0.00,,,0.00,Graphweather,2013-09-21 15:01:00,
2013-09-21 11:06:00,101.7,78.8,29.91,ENE,67,2.5,4.3,48,0.00,,,0.00,Graphweather,2013-09-21 15:06:00,
2013-09-21 11:16:00,101.3,78.8,29.88,NNE,22,2.5,4.7,49,0.00,,,0.00,Graphweather,2013-09-21 15:16:00,
2013-09-21 11:21:00,101.3,78.8,29.88,East,90,2.5,4.7,49,0.00,,,0.00,Graphweather,2013-09-21 15:21:00,
2013-09-21 11:26:00,98.1,77.0,29.88,NNE,22,2.0,4.0,50,0.00,,,0.00,Graphweather,2013-09-21 15:26:00,
2013-09-21 11:31:00,99.3,78.8,29.88,SSE,157,1.6,5.4,51,0.00,,,0.00,Graphweather,2013-09-21 15:31:00,
2013-09-21 11:36:00,99.7,78.8,29.88,WSW,247,2.5,4.0,51,0.00,,,0.00,Graphweather,2013-09-21 15:36:00,
2013-09-21 11:41:00,99.3,77.0,29.88,East,90,2.5,4.9,50,0.00,,,0.00,Graphweather,2013-09-21 15:41:00,
2013-09-21 11:46:00,99.3,78.8,29.88,SE,135,2.7,3.6,52,0.00,,,0.00,Graphweather,2013-09-21 15:46:00,
2013-09-21 11:51:00,99.1,78.8,29.88,East,90,2.2,4.0,52,0.00,,,0.00,Graphweather,2013-09-21 15:51:00,
2013-09-21 12:01:00,98.2,78.8,29.85,ESE,112,2.7,4.5,55,0.00,,,0.00,Graphweather,2013-09-21 16:01:00,
2013-09-21 12:06:00,99.1,78.8,29.85,ESE,112,2.2,5.6,53,0.00,,,0.00,Graphweather,2013-09-21 16:06:00,
2013-09-21 12:11:00,99.9,78.8,29.85,ESE,112,2.0,4.0,52,0.00,,,0.00,Graphweather,2013-09-21 16:11:00,
2013-09-21 12:16:00,100.0,78.8,29.88,ENE,67,2.9,3.6,51,0.00,,,0.00,Graphweather,2013-09-21 16:16:00,
2013-09-21 12:21:00,96.6,78.8,29.88,North,0,1.6,4.3,54,0.00,,,0.00,Graphweather,2013-09-21 16:21:00,
2013-09-21 12:26:00,98.4,78.8,29.88,NE,45,2.0,3.8,54,0.00,,,0.00,Graphweather,2013-09-21 16:26:00,
2013-09-21 12:31:00,97.9,78.8,29.88,East,90,2.5,4.0,54,0.00,,,0.00,Graphweather,2013-09-21 16:31:00,
2013-09-21 12:36:00,97.9,78.8,29.88,ESE,112,2.5,4.7,54,0.00,,,0.00,Graphweather,2013-09-21 16:36:00,
2013-09-21 12:46:00,99.1,78.8,29.88,SSW,202,2.5,4.0,52,0.00,,,0.00,Graphweather,2013-09-21 16:46:00,
2013-09-21 12:54:00,99.5,78.8,29.88,East,90,1.6,3.8,52,0.00,,,0.00,Graphweather,2013-09-21 16:54:00,
2013-09-21 13:04:00,100.4,78.8,29.88,SE,135,2.0,3.1,50,0.00,,,0.00,Graphweather,2013-09-21 17:04:00,
2013-09-21 13:11:00,100.2,77.0,29.88,East,90,1.3,2.9,48,0.00,,,0.00,Graphweather,2013-09-21 17:11:00,
2013-09-21 13:16:00,100.2,78.8,29.88,East,90,2.0,4.9,50,0.00,,,0.00,Graphweather,2013-09-21 17:16:00,
2013-09-21 13:21:00,100.4,77.0,29.88,East,90,2.5,4.3,48,0.00,,,0.00,Graphweather,2013-09-21 17:21:00,
2013-09-21 13:26:00,99.9,77.0,29.88,SE,135,2.2,6.0,49,0.00,,,0.00,Graphweather,2013-09-21 17:26:00,
2013-09-21 13:31:00,100.0,77.0,29.88,East,90,2.0,4.7,49,0.00,,,0.00,Graphweather,2013-09-21 17:31:00,
2013-09-21 13:36:00,98.8,77.0,29.88,ESE,112,1.3,4.3,50,0.00,,,0.00,Graphweather,2013-09-21 17:36:00,
2013-09-21 13:41:00,100.4,78.8,29.88,ENE,67,2.2,3.6,49,0.00,,,0.00,Graphweather,2013-09-21 17:41:00,
2013-09-21 13:51:00,100.9,78.8,29.88,East,90,1.1,3.4,48,0.00,,,0.00,Graphweather,2013-09-21 17:51:00,
2013-09-21 13:56:00,101.5,78.8,29.88,East,90,1.3,3.6,48,0.00,,,0.00,Graphweather,2013-09-21 17:56:00,
2013-09-21 14:01:00,99.9,77.0,29.85,East,90,2.2,3.1,49,0.00,,,0.00,Graphweather,2013-09-21 18:01:00,
2013-09-21 14:06:00,98.6,77.0,29.85,NE,45,2.5,4.9,49,0.00,,,0.00,Graphweather,2013-09-21 18:06:00,
2013-09-21 14:11:00,97.9,77.0,29.85,ENE,67,2.5,4.3,51,0.00,,,0.00,Graphweather,2013-09-21 18:11:00,
2013-09-21 14:16:00,97.2,77.0,29.85,SSW,202,2.2,3.6,52,0.00,,,0.00,Graphweather,2013-09-21 18:16:00,
2013-09-21 14:26:00,95.5,78.8,29.85,SSW,202,1.1,3.8,57,0.00,,,0.00,Graphweather,2013-09-21 18:26:00,
2013-09-21 14:31:00,96.3,78.8,29.88,ESE,112,2.5,3.4,56,0.00,,,0.00,Graphweather,2013-09-21 18:31:00,
2013-09-21 14:36:00,97.2,78.8,29.88,ESE,112,1.3,2.9,56,0.00,,,0.00,Graphweather,2013-09-21 18:36:00,
2013-09-21 14:41:00,95.4,77.0,29.88,NNE,22,2.9,4.3,56,0.00,,,0.00,Graphweather,2013-09-21 18:41:00,
2013-09-21 14:46:00,94.8,77.0,29.85,ESE,112,2.0,5.8,57,0.00,,,0.00,Graphweather,2013-09-21 18:46:00,
2013-09-21 14:56:00,96.1,78.8,29.85,ESE,112,0.9,2.9,57,0.00,,,0.00,Graphweather,2013-09-21 18:56:00,
2013-09-21 15:01:00,95.7,78.8,29.85,ESE,112,2.2,4.3,57,0.00,,,0.00,Graphweather,2013-09-21 19:01:00,
2013-09-21 15:06:00,95.4,78.8,29.85,ESE,112,2.5,4.0,57,0.00,,,0.00,Graphweather,2013-09-21 19:06:00,
2013-09-21 15:11:00,94.3,77.0,29.85,East,90,2.0,3.4,58,0.00,,,0.00,Graphweather,2013-09-21 19:11:00,
2013-09-21 15:16:00,92.8,77.0,29.85,ENE,67,2.2,3.4,59,0.00,,,0.00,Graphweather,2013-09-21 19:16:00,
2013-09-21 15:21:00,92.8,77.0,29.85,East,90,1.3,2.9,60,0.00,,,0.00,Graphweather,2013-09-21 19:21:00,
2013-09-21 15:26:00,91.2,77.0,29.85,ENE,67,1.3,4.3,63,0.00,,,0.00,Graphweather,2013-09-21 19:26:00,
2013-09-21 15:35:00,91.9,78.8,29.85,East,90,2.2,4.9,64,0.00,,,0.00,Graphweather,2013-09-21 19:35:00,
2013-09-21 15:41:00,92.8,78.8,29.85,ESE,112,1.1,3.6,63,0.00,,,0.00,Graphweather,2013-09-21 19:41:00,
2013-09-21 15:46:00,92.7,77.0,29.85,ESE,112,2.0,3.1,62,0.00,,,0.00,Graphweather,2013-09-21 19:46:00,
2013-09-21 15:51:00,91.4,77.0,29.85,East,90,2.0,3.4,63,0.00,,,0.00,Graphweather,2013-09-21 19:51:00,
2013-09-21 15:56:00,90.9,77.0,29.85,East,90,1.3,3.4,64,0.00,,,0.00,Graphweather,2013-09-21 19:56:00,
2013-09-21 16:01:00,90.5,77.0,29.85,East,90,1.1,2.5,64,0.00,,,0.00,Graphweather,2013-09-21 20:01:00,
2013-09-21 16:06:00,89.6,77.0,29.85,NNE,22,0.9,3.1,65,0.00,,,0.00,Graphweather,2013-09-21 20:06:00,
2013-09-21 16:11:00,88.7,77.0,29.85,East,90,2.0,3.4,66,0.00,,,0.00,Graphweather,2013-09-21 20:11:00,
2013-09-21 16:21:00,87.6,77.0,29.88,ESE,112,1.3,4.3,69,0.00,,,0.00,Graphweather,2013-09-21 20:21:00,
2013-09-21 16:26:00,87.3,77.0,29.88,East,90,0.9,2.9,70,0.00,,,0.00,Graphweather,2013-09-21 20:26:00,
2013-09-21 16:31:00,87.1,77.0,29.88,East,90,0.9,2.7,70,0.00,,,0.00,Graphweather,2013-09-21 20:31:00,
2013-09-21 16:36:00,87.1,77.0,29.88,East,90,1.1,2.2,71,0.00,,,0.00,Graphweather,2013-09-21 20:36:00,
2013-09-21 16:41:00,86.9,77.0,29.88,ESE,112,0.9,2.5,72,0.00,,,0.00,Graphweather,2013-09-21 20:41:00,
2013-09-21 16:46:00,86.5,77.0,29.88,ESE,112,0.0,2.7,72,0.00,,,0.00,Graphweather,2013-09-21 20:46:00,
2013-09-21 16:54:00,86.4,77.0,29.88,SSE,157,0.9,2.5,72,0.00,,,0.00,Graphweather,2013-09-21 20:54:00,
2013-09-21 17:01:00,85.5,77.0,29.88,East,90,0.9,2.7,74,0.00,,,0.00,Graphweather,2013-09-21 21:01:00,
2013-09-21 17:09:00,85.3,77.0,29.88,East,90,1.3,2.5,74,0.00,,,0.00,Graphweather,2013-09-21 21:09:00,
2013-09-21 17:20:00,84.7,77.0,29.88,ESE,112,0.9,2.2,75,0.00,,,0.00,Graphweather,2013-09-21 21:20:00,
2013-09-21 17:30:00,84.4,77.0,29.88,ENE,67,0.0,2.0,76,0.00,,,0.00,Graphweather,2013-09-21 21:30:00,
2013-09-21 17:40:00,83.5,77.0,29.88,East,90,0.0,1.6,78,0.00,,,0.00,Graphweather,2013-09-21 21:40:00,
2013-09-21 17:46:00,83.1,75.2,29.88,ESE,112,0.0,2.2,78,0.00,,,0.00,Graphweather,2013-09-21 21:46:00,
2013-09-21 17:51:00,82.9,75.2,29.88,SSE,157,0.0,1.6,78,0.00,,,0.00,Graphweather,2013-09-21 21:51:00,
2013-09-21 17:56:00,82.6,75.2,29.88,East,90,0.0,1.6,79,0.00,,,0.00,Graphweather,2013-09-21 21:56:00,
2013-09-21 18:01:00,82.0,75.2,29.88,ESE,112,0.0,1.6,79,0.00,,,0.00,Graphweather,2013-09-21 22:01:00,
2013-09-21 18:06:00,81.9,75.2,29.88,ESE,112,0.0,2.2,80,0.00,,,0.00,Graphweather,2013-09-21 22:06:00,
2013-09-21 18:11:00,81.7,75.2,29.88,ESE,112,0.0,0.0,81,0.00,,,0.00,Graphweather,2013-09-21 22:11:00,
2013-09-21 18:16:00,81.3,75.2,29.88,East,90,0.0,1.3,81,0.00,,,0.00,Graphweather,2013-09-21 22:16:00,
2013-09-21 18:26:00,80.8,75.2,29.88,East,90,0.0,0.0,82,0.00,,,0.00,Graphweather,2013-09-21 22:26:00,
2013-09-21 18:31:00,80.6,75.2,29.88,ENE,67,0.0,0.9,82,0.00,,,0.00,Graphweather,2013-09-21 22:31:00,
2013-09-21 18:40:00,80.4,75.2,29.88,ENE,67,0.0,0.0,84,0.00,,,0.00,Graphweather,2013-09-21 22:40:00,
2013-09-21 18:46:00,80.2,75.2,29.88,East,90,0.0,0.0,85,0.00,,,0.00,Graphweather,2013-09-21 22:46:00,
2013-09-21 18:51:00,80.1,75.2,29.88,East,90,0.0,0.0,85,0.00,,,0.00,Graphweather,2013-09-21 22:51:00,
2013-09-21 18:56:00,80.1,75.2,29.88,ESE,112,0.0,0.9,85,0.00,,,0.00,Graphweather,2013-09-21 22:56:00,
2013-09-21 19:01:00,79.9,75.2,29.88,East,90,0.0,1.6,86,0.00,,,0.00,Graphweather,2013-09-21 23:01:00,
2013-09-21 19:11:00,79.9,77.0,29.88,East,90,0.0,0.0,87,0.00,,,0.00,Graphweather,2013-09-21 23:11:00,
2013-09-21 19:16:00,79.7,75.2,29.88,ESE,112,0.0,2.0,86,0.00,,,0.00,Graphweather,2013-09-21 23:16:00,
2013-09-21 19:21:00,79.7,75.2,29.88,SSE,157,0.0,2.0,86,0.00,,,0.00,Graphweather,2013-09-21 23:21:00,
2013-09-21 19:26:00,79.5,75.2,29.88,East,90,0.0,0.0,86,0.00,,,0.00,Graphweather,2013-09-21 23:26:00,
2013-09-21 19:31:00,79.5,75.2,29.88,SE,135,0.0,1.1,86,0.00,,,0.00,Graphweather,2013-09-21 23:31:00,
2013-09-21 19:36:00,79.5,75.2,29.88,SE,135,0.0,1.3,87,0.00,,,0.00,Graphweather,2013-09-21 23:36:00,
2013-09-21 19:46:00,79.3,75.2,29.88,SSE,157,0.0,1.1,87,0.00,,,0.00,Graphweather,2013-09-21 23:46:00,
2013-09-21 19:51:00,79.3,75.2,29.88,SSE,157,0.0,1.1,87,0.00,,,0.00,Graphweather,2013-09-21 23:51:00,
2013-09-21 19:58:00,79.3,75.2,29.88,SE,135,0.0,1.1,87,0.00,,,0.00,Graphweather,2013-09-21 23:58:00,